User: anonymous   Login
Location: Bonny Doon Airfield
(37.0704°N, 122.1252°W)
Time: 13:32:28
(UTC-07:00)
Language:

Envisat - Orbit

View from above orbital plane
View from above orbital plane
View from above satellite
View from above satellite

Ground track
Ground track

The orbit data is extracted from the following two-line orbital elements,

1 27386U 02009A   17291.41475893 -.00000005  00000-0  12065-4 0  9992
2 27386  98.2182 331.4620 0001235  87.2303 272.9027 14.37905674818788
Epoch (UTC): 18 October 2017 09:57:15
Eccentricity: 0.0001235
inclination: 98.2182°
perigee height: 764 km
apogee height: 766 km
right ascension of ascending node: 331.4620°
argument of perigee: 87.2303°
revolutions per day: 14.37905674
mean anomaly at epoch: 272.9027°
orbit number at epoch: 81878

The dashed part of the orbit path shows where the satellite is in the earth's shadow,  

DLR